When you browse on this site, cookies collect data to enhance your experience and personalize the content and advertising you see.
Visit our Privacy Policy to learn more. By continuing to use the site, you agree to this use of cookies and data.
  • In Spain
  • List of Countries
  • For 7 days
  • Water Temperature
  • Satellite Maps
  • Weather Map
  • Weather Widgets
  • user-avatar
    Login

    Hourly Weather Nashavar

    Today, 18 November, Sunday

    Time Temperature Precipitation Wind Pressure Humidity
    00:00 +20°C° 0 mm 1 mps 729 mmHg 24%
    01:00 +20°C° 0 mm 1 mps 729 mmHg 25%
    02:00 +19°C° 0 mm 1 mps 729 mmHg 25%
    03:00 +19°C° 0 mm 1 mps 729 mmHg 25%
    04:00 +18°C° 0 mm 1 mps 730 mmHg 25%
    05:00 +18°C° 0 mm 1 mps 729 mmHg 27%
    06:00 +19°C° 0 mm 1 mps 730 mmHg 26%
    07:00 +19°C° 0 mm 1 mps 730 mmHg 26%
    08:00 +20°C° 0 mm 1 mps 731 mmHg 25%
    09:00 +21°C° 0 mm 1 mps 731 mmHg 23%
    10:00 +23°C° 0 mm 1 mps 731 mmHg 20%
    11:00 +25°C° 0 mm 1 mps 731 mmHg 17%
    12:00 +25°C° 0 mm 1 mps 731 mmHg 17%
    13:00 +26°C° 0 mm 1 mps 730 mmHg 16%
    14:00 +27°C° 0 mm 1 mps 730 mmHg 15%
    15:00 +26°C° 0 mm 1 mps 730 mmHg 17%
    16:00 +25°C° 0 mm 1 mps 730 mmHg 19%
    17:00 +24°C° 0 mm 1 mps 730 mmHg 21%
    18:00 +21°C° 0 mm 0 mps 730 mmHg 22%
    19:00 +20°C° 0 mm 0 mps 731 mmHg 23%
    20:00 +19°C° 0 mm 0 mps 731 mmHg 24%
    21:00 +19°C° 0 mm 0 mps 732 mmHg 24%
    22:00 +21°C° 0 mm 1 mps 732 mmHg 24%
    23:00 +20°C° 0 mm 1 mps 732 mmHg 25%

    Tomorrow, 19 November, Monday

    Time Temperature Precipitation Wind Pressure Humidity
    00:00 +20°C° 0 mm 1 mps 732 mmHg 25%
    01:00 +20°C° 0 mm 1 mps 732 mmHg 26%
    02:00 +19°C° 0 mm 2 mps 732 mmHg 26%
    03:00 +18°C° 0 mm 2 mps 732 mmHg 28%
    04:00 +18°C° 0 mm 2 mps 732 mmHg 30%
    05:00 +18°C° 0 mm 2 mps 733 mmHg 31%
    06:00 +18°C° 0 mm 2 mps 733 mmHg 32%
    07:00 +19°C° 0 mm 2 mps 734 mmHg 34%
    08:00 +19°C° 0 mm 2 mps 734 mmHg 35%
    09:00 +20°C° 0 mm 2 mps 734 mmHg 30%
    10:00 +23°C° 0 mm 2 mps 735 mmHg 26%
    11:00 +24°C° 0 mm 2 mps 735 mmHg 22%
    12:00 +25°C° 0 mm 2 mps 735 mmHg 21%
    13:00 +25°C° 0 mm 2 mps 734 mmHg 20%
    14:00 +26°C° 0 mm 2 mps 734 mmHg 19%
    15:00 +25°C° 0 mm 2 mps 734 mmHg 21%
    16:00 +24°C° 0 mm 1 mps 733 mmHg 22%
    17:00 +24°C° 0 mm 1 mps 733 mmHg 24%
    18:00 +23°C° 0 mm 1 mps 734 mmHg 25%
    19:00 +21°C° 0 mm 2 mps 734 mmHg 26%
    20:00 +20°C° 0 mm 2 mps 734 mmHg 26%
    21:00 +20°C° 0 mm 2 mps 734 mmHg 28%
    22:00 +19°C° 0 mm 2 mps 735 mmHg 29%
    23:00 +19°C° 0 mm 2 mps 735 mmHg 30%

    Day after tomorrow, 20 November, Tuesday

    Time Temperature Precipitation Wind Pressure Humidity
    00:00 +19°C° 0 mm 2 mps 735 mmHg 31%
    01:00 +18°C° 0 mm 2 mps 735 mmHg 32%
    02:00 +18°C° 0 mm 2 mps 735 mmHg 33%
    03:00 +17°C° 0 mm 2 mps 735 mmHg 34%
    04:00 +17°C° 0 mm 2 mps 735 mmHg 34%
    05:00 +17°C° 0 mm 2 mps 734 mmHg 35%
    06:00 +17°C° 0 mm 2 mps 735 mmHg 35%
    07:00 +17°C° 0 mm 2 mps 735 mmHg 34%
    08:00 +18°C° 0 mm 2 mps 735 mmHg 34%
    09:00 +19°C° 0 mm 2 mps 735 mmHg 30%
    10:00 +21°C° 0 mm 2 mps 735 mmHg 26%
    11:00 +24°C° 0 mm 2 mps 735 mmHg 22%
    12:00 +25°C° 0 mm 2 mps 735 mmHg 22%
    13:00 +25°C° 0 mm 2 mps 734 mmHg 21%
    14:00 +26°C° 0 mm 2 mps 733 mmHg 20%
    15:00 +25°C° 0 mm 2 mps 733 mmHg 22%
    16:00 +24°C° 0 mm 1 mps 733 mmHg 24%
    17:00 +23°C° 0 mm 1 mps 732 mmHg 26%
    18:00 +23°C° 0 mm 1 mps 733 mmHg 27%
    19:00 +22°C° 0 mm 1 mps 733 mmHg 28%
    20:00 +21°C° 0 mm 1 mps 734 mmHg 29%
    21:00 +20°C° 0 mm 2 mps 734 mmHg 29%
    22:00 +19°C° 0 mm 2 mps 734 mmHg 30%
    23:00 +19°C° 0 mm 2 mps 734 mmHg 30%

    21 November, Wednesday

    Time Temperature Precipitation Wind Pressure Humidity
    00:00 +18°C° 0 mm 2 mps 734 mmHg 30%
    01:00 +18°C° 0 mm 2 mps 734 mmHg 30%
    02:00 +17°C° 0 mm 2 mps 734 mmHg 29%
    03:00 +17°C° 0 mm 2 mps 733 mmHg 29%
    04:00 +17°C° 0 mm 2 mps 733 mmHg 28%
    05:00 +17°C° 0 mm 2 mps 733 mmHg 28%
    06:00 +17°C° 0 mm 2 mps 733 mmHg 27%
    07:00 +17°C° 0 mm 2 mps 734 mmHg 26%
    08:00 +18°C° 0 mm 2 mps 734 mmHg 25%
    09:00 +19°C° 0 mm 2 mps 734 mmHg 21%
    10:00 +21°C° 0 mm 2 mps 734 mmHg 18%
    11:00 +24°C° 0 mm 2 mps 734 mmHg 15%
    12:00 +25°C° 0 mm 2 mps 734 mmHg 14%
    13:00 +26°C° 0 mm 2 mps 733 mmHg 14%
    14:00 +26°C° 0 mm 2 mps 732 mmHg 13%
    15:00 +25°C° 0 mm 1 mps 732 mmHg 15%
    16:00 +24°C° 0 mm 1 mps 732 mmHg 17%
    17:00 +23°C° 0 mm 1 mps 732 mmHg 20%
    18:00 +23°C° 0 mm 1 mps 732 mmHg 20%
    19:00 +22°C° 0 mm 1 mps 733 mmHg 20%
    20:00 +21°C° 0 mm 1 mps 733 mmHg 20%
    21:00 +21°C° 0 mm 1 mps 733 mmHg 20%
    22:00 +21°C° 0 mm 1 mps 733 mmHg 20%
    23:00 +21°C° 0 mm 1 mps 734 mmHg 21%

    22 November, Thursday

    Time Temperature Precipitation Wind Pressure Humidity
    00:00 +21°C° 0 mm 1 mps 733 mmHg 21%
    01:00 +20°C° 0 mm 1 mps 733 mmHg 21%
    02:00 +20°C° 0 mm 1 mps 733 mmHg 21%
    03:00 +20°C° 0 mm 1 mps 733 mmHg 21%
    04:00 +20°C° 0 mm 1 mps 733 mmHg 22%
    05:00 +20°C° 0 mm 1 mps 733 mmHg 22%
    06:00 +19°C° 0 mm 2 mps 733 mmHg 23%
    07:00 +19°C° 0 mm 2 mps 734 mmHg 23%
    08:00 +19°C° 0 mm 2 mps 735 mmHg 24%
    09:00 +20°C° 0.2 mm 3 mps 735 mmHg 29%
    10:00 +20°C° 0.2 mm 4 mps 735 mmHg 33%
    11:00 +20°C° 0.2 mm 4 mps 736 mmHg 37%
    12:00 +20°C° 0 mm 4 mps 735 mmHg 37%
    13:00 +20°C° 0 mm 4 mps 735 mmHg 37%
    14:00 +20°C° 0 mm 4 mps 735 mmHg 37%
    15:00 +20°C° 0 mm 3 mps 735 mmHg 38%
    16:00 +19°C° 0 mm 3 mps 735 mmHg 38%
    17:00 +19°C° 0 mm 2 mps 735 mmHg 38%
    18:00 +19°C° 0 mm 3 mps 735 mmHg 40%
    19:00 +18°C° 0 mm 3 mps 736 mmHg 41%
    20:00 +17°C° 0 mm 3 mps 736 mmHg 42%
    21:00 +17°C° 0 mm 3 mps 737 mmHg 43%
    22:00 +17°C° 0 mm 3 mps 737 mmHg 43%
    23:00 +16°C° 0 mm 3 mps 737 mmHg 44%

    23 November, Friday

    Time Temperature Precipitation Wind Pressure Humidity
    00:00 +16°C° 0 mm 3 mps 737 mmHg 43%
    01:00 +16°C° 0 mm 2 mps 737 mmHg 43%
    02:00 +16°C° 0 mm 2 mps 736 mmHg 43%
    03:00 +16°C° 0 mm 2 mps 736 mmHg 43%
    04:00 +15°C° 0 mm 2 mps 736 mmHg 43%
    05:00 +15°C° 0 mm 2 mps 736 mmHg 43%
    06:00 +16°C° 0 mm 2 mps 736 mmHg 42%
    07:00 +16°C° 0 mm 2 mps 737 mmHg 42%
    08:00 +16°C° 0 mm 3 mps 737 mmHg 41%
    09:00 +18°C° 0 mm 3 mps 737 mmHg 37%
    10:00 +20°C° 0 mm 3 mps 737 mmHg 32%
    11:00 +22°C° 0 mm 3 mps 737 mmHg 28%
    12:00 +24°C° 0 mm 3 mps 737 mmHg 26%
    13:00 +25°C° 0 mm 3 mps 736 mmHg 25%
    14:00 +25°C° 0 mm 3 mps 735 mmHg 24%
    15:00 +24°C° 0 mm 2 mps 735 mmHg 26%
    16:00 +24°C° 0 mm 2 mps 735 mmHg 28%
    17:00 +23°C° 0 mm 2 mps 735 mmHg 30%
    18:00 +21°C° 0 mm 2 mps 735 mmHg 31%
    19:00 +20°C° 0 mm 2 mps 735 mmHg 32%
    20:00 +20°C° 0 mm 2 mps 735 mmHg 33%
    21:00 +19°C° 0 mm 2 mps 735 mmHg 33%
    22:00 +19°C° 0 mm 2 mps 735 mmHg 33%
    23:00 +18°C° 0 mm 2 mps 735 mmHg 33%
    Show more